Weather History for KLNS - May, 2012

Change the Weather History Date:

Tuesday, May 29, 2012

  Actual Average Record
Temperature  
Mean Temperature 80 °F -  
Max Temperature 91 °F 78 °F 91 °F (1987)
Min Temperature 68 °F 54 °F 35 °F (1949)
Cooling Degree Days 14    
Growing Degree Days 30 (Base 50)    
Moisture  
Dew Point 67 °F    
Average Humidity 78    
Maximum Humidity 94    
Minimum Humidity 45    
Precipitation  
Precipitation 0.61 in - - ()
Sea Level Pressure  
Sea Level Pressure 29.81 in    
Wind  
Wind Speed 6 mph (SSW)    
Max Wind Speed 32 mph    
Max Gust Speed 41 mph    
Visibility 7 miles    
Events Rain , Thunderstorm    
Averages and records for this station are not official NWS values.
T = Trace of Precipitation, MM = Missing Value Source: NWS Daily Summary

Daily Weather History Graph

Daily Weather History Graph

Search for Another Location

Airport or City:

Trip Planner

Search our weather history database for the weather conditions in past years. The results will help you decide how hot, cold, wet, or windy it might be!

Date:

Astronomy

May. 29, 2012 Rise Set
Actual Time 5:39 AM EDT 8:26 PM EDT
Civil Twilight 5:07 AM EDT 8:58 PM EDT
Nautical Twilight 4:27 AM EDT 9:38 PM EDT
Astronomical Twilight 3:41 AM EDT 10:25 PM EDT
Moon 1:54 PM EDT (5/29) 1:31 AM EDT (5/29)
Length of Visible Light 15h 51m
Length of Day
14h 47m
First Quarter, 59% of the Moon is Illuminated
May 29
First Quarter
Jun 4
Full
Jun 11
Last Quarter
Jun 19
New
Jun 26
First Quarter

Hourly Weather History & Observations

Time (EDT) Temp. Heat Index Dew Point Humidity Pressure Visibility Wind Dir Wind Speed Gust Speed Precip Events Conditions
12:53 AM 75.9 °F - 70.0 °F 82% 29.91 in 10.0 mi SSW 3.5 mph - N/A   Clear
1:53 AM 75.0 °F - 70.0 °F 84% 29.89 in 10.0 mi SW 3.5 mph - N/A   Clear
2:53 AM 73.9 °F - 69.1 °F 85% 29.88 in 10.0 mi SSW 4.6 mph - N/A   Clear
3:53 AM 73.9 °F - 69.1 °F 85% 29.87 in 10.0 mi Calm Calm - N/A   Clear
4:53 AM 70.0 °F - 66.9 °F 90% 29.87 in 8.0 mi Calm Calm - N/A   Clear
5:53 AM 68.0 °F - 66.0 °F 93% 29.87 in 4.0 mi NE 3.5 mph - N/A   Clear
6:53 AM 73.9 °F - 69.1 °F 85% 29.87 in 8.0 mi SSE 4.6 mph - N/A   Clear
7:53 AM 77.0 °F - 69.1 °F 76% 29.86 in 10.0 mi SSW 6.9 mph - N/A   Clear
8:53 AM 80.1 °F 82.9 °F 69.1 °F 69% 29.85 in 10.0 mi SW 6.9 mph - N/A   Clear
9:53 AM 84.0 °F 87.8 °F 69.1 °F 61% 29.84 in 10.0 mi SW 6.9 mph - N/A   Clear
10:53 AM 86.0 °F 90.1 °F 69.1 °F 57% 29.84 in 10.0 mi SW 6.9 mph - N/A   Clear
11:53 AM 88.0 °F 92.1 °F 69.1 °F 53% 29.83 in 10.0 mi WSW 8.1 mph - N/A   Clear
12:53 PM 90.0 °F 94.5 °F 69.1 °F 50% 29.81 in 10.0 mi WSW 8.1 mph - N/A   Partly Cloudy
1:53 PM 91.0 °F 95.2 °F 68.0 °F 47% 29.76 in 10.0 mi SSW 8.1 mph 17.3 mph N/A   Partly Cloudy
2:53 PM 90.0 °F 93.6 °F 68.0 °F 48% 29.73 in 10.0 mi SSW 8.1 mph 16.1 mph N/A   Scattered Clouds
3:53 PM 91.0 °F 94.3 °F 66.9 °F 45% 29.71 in 10.0 mi SSW 15.0 mph 21.9 mph N/A   Partly Cloudy
4:53 PM 90.0 °F 92.4 °F 66.0 °F 45% 29.70 in 10.0 mi SSW 15.0 mph 20.7 mph N/A   Partly Cloudy
5:53 PM 86.0 °F 88.2 °F 66.0 °F 51% 29.75 in 10.0 mi WNW 18.4 mph 31.1 mph N/A   Mostly Cloudy
6:05 PM 75.2 °F - 62.6 °F 65% 29.77 in 5.0 mi WNW 32.2 mph 41.4 mph N/A Thunderstorm Haze
6:27 PM 68.0 °F - 64.4 °F 88% 29.76 in 1.8 mi NW 24.2 mph 38.0 mph 0.06 in Rain , Thunderstorm Heavy Thunderstorms and Rain
6:53 PM 68.0 °F - 64.9 °F 90% 29.77 in 2.5 mi WNW 8.1 mph - 0.21 in Rain , Thunderstorm Rain
7:01 PM 68.0 °F - 66.2 °F 94% 29.80 in 4.0 mi West 6.9 mph - 0.01 in Rain , Thunderstorm Light Rain
7:12 PM 68.0 °F - 66.2 °F 94% 29.80 in 3.0 mi Calm Calm - 0.04 in Rain Rain
7:23 PM 68.0 °F - 66.2 °F 94% 29.81 in 2.5 mi SE 6.9 mph - 0.12 in Rain , Thunderstorm Heavy Rain
7:31 PM 68.0 °F - 66.2 °F 94% 29.81 in 4.0 mi SE 5.8 mph - 0.14 in Rain , Thunderstorm Thunderstorms and Rain
7:53 PM 68.0 °F - 66.0 °F 93% 29.80 in 4.0 mi South 5.8 mph - 0.22 in Rain , Thunderstorm Thunderstorms and Rain
8:34 PM 68.0 °F - 66.2 °F 94% 29.78 in 4.0 mi ESE 5.8 mph - 0.08 in Rain Heavy Rain
8:46 PM 68.0 °F - 66.2 °F 94% 29.79 in 4.0 mi SSE 6.9 mph - 0.11 in Rain Rain
8:53 PM 68.0 °F - 66.0 °F 93% 29.78 in 5.0 mi SE 4.6 mph - 0.13 in Rain Rain
9:53 PM 68.0 °F - 66.0 °F 93% 29.80 in 9.0 mi Calm Calm - 0.04 in   Clear
10:53 PM 68.0 °F - 66.0 °F 93% 29.80 in 8.0 mi Calm Calm - 0.01 in Rain Light Rain
11:28 PM 69.8 °F - 66.2 °F 88% 29.81 in 8.0 mi Calm Calm - 0.00 in Rain Light Rain
11:53 PM 68.0 °F - 66.0 °F 93% 29.80 in 7.0 mi Calm Calm - 0.00 in   Partly Cloudy